Location: Alma
(38.7220°N, 88.9090°W)
Time: 15:54:36
(UTC-06:00)

Vanguard 2 - Pass Details

Date: 20 November 2019
Orbit: 553 x 2938 km, 32.9° (Epoch: 14 December)

Event Time Altitude Azimuth Distance (km) Brightness Sun altitude
Rises 08:43:07 0° 250° (WSW) 5,565 11.7 18.2°
Reaches altitude 10° 08:47:29 10° 246° (WSW) 4,170 11.1 18.8°
Maximum altitude 08:57:20 52° 174° (S) 1,488 9.9 20.1°
Drops below altitude 10° 09:03:17 10° 99° (E) 2,563 11.1 20.8°
Sets 09:05:24 0° 94° (E) 3,299 11.4 21.1°
